Weather History for KMYR - April, 2013

Change the Weather History Date:

Thursday, April 4, 2013

  Actual Average Record
Temperature  
Mean Temperature 54 °F -  
Max Temperature 59 °F 67 °F 85 °F (2007)
Min Temperature 48 °F 49 °F 32 °F (1992)
Degree Days  
Heating Degree Days 12    
Growing Degree Days 4 (Base 50)    
Moisture  
Dew Point 47 °F    
Average Humidity 81    
Maximum Humidity 100    
Minimum Humidity 62    
Precipitation  
Precipitation 0.00 in - - ()
Sea Level Pressure  
Sea Level Pressure 30.11 in    
Wind  
Wind Speed 11 mph (NE)    
Max Wind Speed 24 mph    
Max Gust Speed 32 mph    
Visibility 8 miles    
Events Rain    
Averages and records for this station are not official NWS values.
T = Trace of Precipitation, MM = Missing Value Source: NWS Daily Summary

Daily Weather History Graph

Daily Weather History Graph

Search for Another Location

Airport or City:

Trip Planner

Search our weather history database for the weather conditions in past years. The results will help you decide how hot, cold, wet, or windy it might be!

Date:

Astronomy

Apr. 04, 2013 Rise Set
Actual Time 6:58 AM EDT 7:38 PM EDT
Civil Twilight 6:33 AM EDT 8:03 PM EDT
Nautical Twilight 6:04 AM EDT 8:33 PM EDT
Astronomical Twilight 5:33 AM EDT 9:03 PM EDT
Moon 3:08 AM EDT (4/4) 2:10 PM EDT (4/4)
Length of Visible Light 13h 30m
Length of Day
12h 39m
Waning Crescent, 34% of the Moon is Illuminated
Apr 4
Waning Crescent
Apr 10
New
Apr 18
First Quarter
Apr 25
Full
May 2
Last Quarter

Hourly Weather History & Observations

Time (EDT) Temp. Dew Point Humidity Pressure Visibility Wind Dir Wind Speed Gust Speed Precip Events Conditions
12:15 AM 53.6 °F 42.8 °F 67% 30.27 in 10.0 mi ENE 6.9 mph - N/A   Scattered Clouds
12:35 AM 53.6 °F 42.8 °F 67% 30.27 in 10.0 mi ENE 8.1 mph - N/A   Mostly Cloudy
12:55 AM 53.6 °F 42.8 °F 67% 30.26 in 10.0 mi East 6.9 mph - N/A   Scattered Clouds
1:15 AM 53.6 °F 42.8 °F 67% 30.26 in 10.0 mi East 10.4 mph - N/A   Clear
1:35 AM 53.6 °F 42.8 °F 67% 30.25 in 10.0 mi East 5.8 mph - N/A   Clear
1:55 AM 53.6 °F 44.6 °F 72% 30.24 in 10.0 mi East 10.4 mph - N/A   Partly Cloudy
2:15 AM 53.6 °F 42.8 °F 67% 30.23 in 10.0 mi ENE 8.1 mph - N/A   Partly Cloudy
2:35 AM 53.6 °F 42.8 °F 67% 30.22 in 10.0 mi ENE 11.5 mph - N/A   Mostly Cloudy
2:55 AM 53.6 °F 42.8 °F 67% 30.22 in 10.0 mi ENE 9.2 mph - N/A   Mostly Cloudy
3:15 AM 53.6 °F 44.6 °F 72% 30.22 in 10.0 mi NE 10.4 mph - N/A   Mostly Cloudy
3:35 AM 53.6 °F 44.6 °F 72% 30.21 in 10.0 mi ENE 12.7 mph - N/A   Mostly Cloudy
3:55 AM 53.6 °F 44.6 °F 72% 30.22 in 10.0 mi NNE 9.2 mph - N/A   Partly Cloudy
4:15 AM 51.8 °F 44.6 °F 76% 30.21 in 10.0 mi NE 9.2 mph - N/A   Clear
4:35 AM 51.8 °F 44.6 °F 76% 30.22 in 10.0 mi NNE 5.8 mph - N/A   Clear
4:55 AM 51.8 °F 44.6 °F 76% 30.21 in 10.0 mi NE 6.9 mph - N/A   Clear
5:15 AM 51.8 °F 44.6 °F 76% 30.21 in 10.0 mi NE 13.8 mph 17.3 mph N/A   Scattered Clouds
5:35 AM 51.8 °F 42.8 °F 71% 30.21 in 10.0 mi NE 12.7 mph - N/A   Partly Cloudy
6:45 AM 51.8 °F 44.6 °F 76% 30.21 in 10.0 mi East 16.1 mph 21.9 mph N/A Rain Light Rain
7:46 AM 51.8 °F 39.2 °F 62% 30.22 in 10.0 mi ENE 17.3 mph 23.0 mph N/A Rain Light Rain
9:45 AM 50.0 °F 46.4 °F 87% 30.21 in 5.0 mi ENE 17.3 mph 26.5 mph N/A Rain Light Rain
10:45 AM 48.2 °F 46.4 °F 93% 30.18 in 6.0 mi NE 17.3 mph 23.0 mph N/A Rain Light Rain
11:45 AM 50.0 °F 46.4 °F 87% 30.15 in 6.0 mi ENE 17.3 mph 28.8 mph N/A Rain Light Rain
12:30 PM 50.0 °F 48.2 °F 94% 30.12 in 6.0 mi ENE 17.3 mph 28.8 mph N/A Rain Light Rain
12:55 PM 51.8 °F 48.2 °F 88% 30.13 in 6.0 mi ENE 17.3 mph 25.3 mph N/A Rain Light Rain
1:45 PM 51.8 °F 50.0 °F 94% 30.07 in 3.0 mi East 24.2 mph 32.2 mph N/A Rain Rain
2:45 PM 51.8 °F 51.8 °F 100% 30.05 in 4.0 mi ENE 16.1 mph 25.3 mph N/A Rain Rain
4:45 PM 53.6 °F 53.6 °F 100% 29.93 in 2.0 mi ENE 17.3 mph 28.8 mph N/A Rain Light Rain
5:45 PM 55.4 °F 55.4 °F 100% 29.89 in 4.0 mi ENE 17.3 mph 28.8 mph N/A Rain Light Rain
6:50 PM 57.2 °F 55.4 °F 94% 29.85 in 4.0 mi ENE 17.3 mph 32.2 mph N/A Rain Rain
7:45 PM 59.0 °F 59.0 °F 100% 29.83 in 6.0 mi NNE 11.5 mph 20.7 mph N/A   Overcast
8:50 PM 53.6 °F 51.8 °F 94% 29.82 in 6.0 mi North 13.8 mph - N/A   Overcast
9:50 PM 51.8 °F 50.0 °F 94% 29.85 in 6.0 mi NNW 12.7 mph - N/A   Overcast
11:15 PM 50.0 °F 46.4 °F 87% 29.85 in 7.0 mi WNW 13.8 mph - N/A   Overcast
11:35 PM 48.2 °F 46.4 °F 93% 29.86 in 5.0 mi NW 13.8 mph - N/A   Overcast
11:55 PM 48.2 °F 46.4 °F 93% 29.87 in 3.0 mi NW 9.2 mph - N/A   Overcast